RH
28 24 23 20 19 18 29 29 26 26 25 23 21 19 20 20 19 19 18 17 17 17 17 17 18 21 23 22 22 26 19 18 18 24 17 36 33 38 39 35 37 34 32 32 24
26 22 20 18 16 23 30 28 26 25 24 23 21 18 17 19 20 17 15 15 13 14 15 15 20 18 23 25 26 23 21 15 20 22 23 32 34 31 34 34 34 34 35 34 30
22 19 17 14 18 30 28 26 24 24 23 22 21 19 17 17 20 18 17 17 13 13 14 15 15 20 23 26 25 27 18 20 21 27 33 32 38 37 32 30 29 28 31 34 34
16 13 13 16 28 28 26 24 22 22 21 21 20 19 18 17 19 17 18 17 16 14 14 15 17 19 21 22 26 23 20 24 25 29 31 29 33 33 33 27 30 30 30 32 33
12 14 16 25 30 27 25 24 21 20 20 19 18 18 17 17 18 17 17 17 16 14 15 15 18 19 18 21 25 23 20 25 26 29 30 33 31 30 29 31 31 32 31 31 30
15 18 22 29 28 26 24 22 20 20 19 18 17 17 17 18 18 17 17 17 15 16 16 16 20 21 22 22 23 25 25 22 23 24 29 31 24 32 18 21 27 33 34 33 32
18 20 25 28 27 25 22 21 20 19 18 18 17 16 16 18 18 17 18 16 16 17 17 18 19 22 25 24 27 24 21 16 19 22 22 29 22 26 16 23 21 25 28 32 32
18 22 26 28 25 22 21 20 19 19 18 18 17 16 17 17 17 18 18 17 17 18 19 20 20 21 25 26 23 20 22 19 21 24 25 25 16 12 15 19 20 19 20 24 26
19 21 23 24 23 22 22 21 20 19 19 18 18 17 16 17 19 19 19 18 18 18 20 21 23 25 25 18 15 20 15 17 17 24 23 24 17 11 18 21 18 15 15 19 22
22 22 24 24 23 20 20 21 21 20 19 21 20 18 17 18 19 19 18 18 19 19 22 24 24 20 21 18 16 16 16 15 19 19 26 22 22 15 12 14 17 16 14 15 18
27 26 26 24 22 19 22 21 24 24 24 19 18 17 17 19 19 19 18 20 20 20 17 22 19 17 12 17 18 20 21 19 16 15 22 18 17 16 14 14 15 16 18 16 16
30 27 25 23 22 22 21 22 18 21 19 20 22 19 18 20 19 19 18 19 19 16 20 19 18 13 20 21 24 23 22 17 16 20 26 18 20 16 14 14 16 15 16 17 19
27 24 24 24 23 23 20 20 21 23 26 23 21 22 21 20 19 18 19 21 18 20 18 17 14 21 20 20 22 19 20 18 20 19 19 23 17 15 10 16 17 18 19 21 22
25 26 26 24 25 27 24 23 24 23 20 19 23 22 22 22 21 20 20 20 19 18 20 19 20 21 22 21 21 23 19 21 22 24 22 21 22 15 11 13 12 13 15 18 21
30 27 25 25 29 29 29 27 24 24 17 19 21 22 23 20 20 22 22 21 19 17 21 16 20 23 24 21 21 20 26 25 27 25 28 24 26 14 16 11 10 12 14 16 18
28 27 25 24 26 26 25 25 26 20 18 24 24 23 22 24 23 25 24 23 24 22 22 20 26 22 21 22 21 24 23 28 33 28 28 25 27 14 13 13 13 11 13 14 16
26 28 28 26 26 31 25 25 22 20 22 25 24 24 23 22 22 24 23 23 22 22 22 22 23 25 25 25 25 22 24 22 21 24 21 31 31 18 14 13 14 14 14 15 16
24 26 29 28 26 26 27 22 24 19 23 25 25 26 25 23 23 24 26 23 26 23 24 26 19 26 24 24 24 25 24 22 28 20 19 33 29 16 14 13 14 16 16 17 18
26 25 30 30 29 27 27 24 18 19 24 25 25 26 25 26 25 24 24 23 24 23 24 23 24 27 26 23 24 29 27 25 24 27 30 20 18 15 12 11 11 14 17 19 21
29 29 29 32 32 29 25 27 22 23 28 26 25 23 24 23 25 23 20 22 26 26 24 22 26 27 28 26 26 25 24 27 25 30 28 20 22 18 14 12 13 16 18 20 22
31 33 35 35 35 32 30 27 26 25 30 26 26 25 24 24 24 23 20 24 26 26 25 22 25 24 27 27 24 28 26 27 28 28 27 26 19 14 16 14 18 18 20 21 23
30 34 41 43 40 46 34 30 30 30 34 32 29 25 25 27 26 26 24 24 30 26 27 24 25 29 24 25 26 24 23 22 26 27 26 27 28 14 14 15 18 21 22 24 27
28 37 47 48 37 40 42 37 37 33 32 32 32 32 30 29 30 28 30 34 33 28 27 25 27 30 24 29 26 26 25 23 25 28 32 32 26 14 14 15 19 22 23 26 29
34 37 59 51 49 39 39 36 35 38 36 35 34 35 34 34 32 32 32 37 36 32 31 27 32 32 29 24 25 30 28 27 28 35 30 28 25 20 18 19 22 24 29 29 30
50 41 48 50 50 43 41 39 40 38 42 41 40 37 36 38 39 39 38 36 40 40 37 32 41 34 32 30 31 33 34 32 34 31 34 29 25 22 21 23 24 29 33 32 34
64 58 62 62 66 52 53 47 43 38 38 41 43 40 39 39 34 35 37 40 39 43 39 40 44 44 45 36 36 41 37 36 35 33 32 31 33 23 26 27 33 35 36 34 36
71 56 59 66 61 54 50 47 49 47 50 47 42 43 46 43 44 44 44 44 41 40 39 42 42 41 48 34 43 45 34 36 34 29 32 38 28 29 36 39 40 42 39 43 43
Wind_Speed
9 7 6 5 5 7 8 8 7 5 5 5 5 6 5 4 5 4 3 3 5 5 3 3 1 2 3 2 2 3 5 10 13 11 13 5 8 6 5 10 10 11 8 10 8
8 7 6 6 8 11 8 6 5 6 6 4 5 5 4 3 4 3 4 6 7 6 5 4 5 5 3 2 2 5 5 9 4 6 7 5 10 5 6 12 15 16 19 19 16
8 7 7 8 12 10 7 5 4 4 4 3 3 2 2 3 3 2 3 7 8 7 6 6 6 4 4 3 3 2 8 4 6 8 7 7 7 8 10 12 18 19 22 25 23
8 9 10 11 12 9 6 4 4 4 3 2 1 1 2 2 2 1 6 7 9 9 7 6 4 3 4 4 3 6 7 7 5 3 4 8 6 8 20 26 10 14 13 23 28
7 9 12 12 10 8 6 4 3 3 3 2 2 3 3 2 2 4 7 7 9 9 6 4 5 4 6 2 3 7 5 5 7 8 10 10 16 16 23 22 21 21 20 22 25
9 11 12 11 9 7 5 4 3 2 2 3 3 4 3 7 6 5 5 9 9 7 5 3 3 4 2 3 5 2 8 13 9 9 9 8 11 4 14 13 20 23 25 27 28
9 10 12 11 7 6 6 4 4 3 4 5 5 6 7 7 9 9 9 7 6 4 4 2 2 1 3 3 3 5 9 9 10 5 5 4 10 14 22 15 16 20 24 26 30
8 9 8 9 8 7 6 5 5 6 6 7 6 7 6 9 9 8 8 7 5 5 4 2 1 2 1 2 3 5 4 5 4 5 2 3 17 14 12 14 21 22 23 26 30
9 8 8 8 7 7 5 5 6 7 7 7 7 5 5 5 6 6 6 6 5 5 4 4 2 1 2 4 6 3 9 10 10 5 2 7 20 15 11 12 22 24 24 26 28
8 7 7 7 7 7 5 5 7 8 7 7 9 4 7 4 5 4 5 6 5 4 2 2 2 4 4 5 7 9 13 11 12 0 7 12 26 27 30 26 33 32 31 31 31
6 5 5 6 6 6 5 5 4 4 10 7 4 3 4 5 4 6 6 5 6 4 5 1 6 10 11 7 9 9 11 15 18 5 6 14 23 27 37 26 30 31 30 31 36
3 4 5 5 4 4 5 5 4 3 3 11 15 13 9 9 5 7 7 5 5 6 3 5 12 9 2 2 7 9 11 16 11 2 5 14 24 27 23 15 16 20 22 23 24
5 5 5 4 4 5 3 3 2 1 2 3 5 5 6 8 5 4 6 4 6 6 8 11 4 3 2 5 7 9 11 11 9 8 10 13 13 9 11 8 10 9 13 14 15
7 6 5 4 4 4 4 3 1 2 3 2 2 1 3 4 3 6 6 4 4 4 4 8 0 3 5 6 5 9 2 5 7 8 6 7 7 7 11 12 7 16 18 16 13
7 6 5 5 3 4 4 1 2 2 3 3 2 3 4 3 1 2 5 3 6 4 3 1 3 4 5 4 5 3 1 4 4 7 7 4 4 6 9 12 17 17 24 24 20
7 7 6 5 5 4 2 1 1 3 4 3 2 2 2 2 2 1 2 3 1 3 5 10 1 3 1 1 3 2 5 3 2 3 3 4 2 9 4 9 14 14 18 21 23
8 8 7 7 6 5 3 3 2 4 2 3 2 2 2 2 2 1 2 5 4 4 2 2 1 1 1 3 2 3 6 4 3 3 3 3 4 13 16 8 9 12 16 19 25
7 9 9 8 7 6 6 3 5 1 2 2 1 1 3 0 1 1 2 4 2 3 3 3 1 2 3 2 3 1 3 4 6 7 12 3 7 5 6 16 8 6 12 24 27
6 9 10 9 8 7 4 3 2 2 2 1 2 2 2 1 2 2 3 2 1 7 3 3 3 2 1 0 2 3 3 2 5 2 4 4 6 12 8 5 11 19 27 30 29
6 7 9 10 9 8 3 2 3 3 2 2 2 3 3 2 3 3 2 3 2 2 2 1 5 1 1 2 2 3 2 3 3 5 6 5 6 10 12 14 17 18 31 31 27
7 4 7 10 10 5 4 5 4 5 5 4 3 3 4 3 4 3 2 2 3 3 5 3 3 2 2 6 3 3 3 4 4 4 5 9 4 5 13 17 11 19 26 24 22
4 3 7 13 5 2 4 4 2 4 4 4 2 5 6 5 4 4 5 3 3 4 2 1 2 5 8 3 2 2 4 7 4 6 8 13 13 17 14 5 16 19 16 17 18
3 4 8 17 5 5 1 2 4 4 4 5 5 6 4 5 4 5 3 1 3 4 3 5 3 6 4 3 2 5 5 6 7 4 18 15 12 4 9 20 20 20 16 20 18
4 3 3 10 3 1 4 4 4 3 3 3 1 3 3 4 5 2 3 2 2 2 2 5 4 12 14 15 10 13 11 12 14 12 21 19 31 25 24 21 21 16 18 18 15
7 3 5 4 6 6 4 3 4 4 4 4 3 7 5 5 2 4 3 1 2 1 1 3 9 14 17 18 19 21 22 22 23 26 24 31 27 27 25 21 12 13 20 15 16
5 4 4 3 3 9 6 7 10 5 5 4 5 3 5 5 5 6 2 3 6 2 3 2 6 6 17 18 18 23 23 25 28 28 29 29 29 22 9 8 15 21 19 15 17
12 7 4 4 4 5 5 5 6 5 2 1 4 3 4 5 5 5 6 11 14 10 10 6 7 11 20 11 12 17 21 20 17 16 14 16 17 12 12 16 21 24 16 22 33
Wind_Direction
181 189 203 207 203 172 166 157 149 137 135 122 95 90 96 83 95 110 78 33 5 341 339 324 293 249 265 251 194 166 252 262 269 264 280 186 212 212 227 224 211 214 232 223 215
194 186 201 188 180 171 171 159 150 146 148 136 114 82 73 79 119 107 51 23 1 327 310 294 254 263 238 210 223 234 261 279 283 281 274 229 227 238 221 219 232 234 232 231 225
191 182 184 180 167 172 173 160 154 147 153 139 124 98 49 52 162 154 22 354 351 339 308 285 270 247 237 220 209 221 261 307 268 258 256 252 241 230 238 242 239 235 228 230 226
180 178 168 164 168 174 174 172 158 161 164 180 161 269 336 1 260 206 329 335 334 332 319 297 270 241 237 233 203 253 258 255 279 237 244 250 261 242 234 246 261 249 239 229 227
171 164 156 163 177 178 182 188 175 176 180 234 265 290 306 295 272 297 315 321 324 328 320 297 247 248 251 223 223 241 280 254 262 261 255 260 255 265 262 254 250 249 242 232 233
168 163 160 173 184 186 199 201 210 210 233 256 271 285 303 279 283 284 301 309 314 319 320 321 239 237 259 238 245 273 274 274 270 258 251 251 270 279 265 253 239 235 239 238 237
167 170 171 184 191 206 212 217 231 254 265 267 277 284 279 273 262 271 285 289 301 302 304 315 238 191 168 235 242 279 291 278 242 237 249 262 265 236 277 251 251 242 241 234 236
173 180 182 199 205 217 222 233 248 257 261 264 272 285 269 262 254 261 271 279 282 281 272 287 222 222 168 187 244 266 257 299 135 178 194 220 284 278 280 239 254 253 247 239 239
182 185 196 210 215 224 234 246 257 257 257 263 274 262 262 253 241 245 246 260 264 260 248 253 251 185 172 258 264 223 298 297 305 208 245 224 291 289 270 249 256 255 251 244 245
181 189 207 220 228 228 243 255 254 247 244 260 246 249 229 222 216 222 243 250 239 230 249 243 208 243 221 240 289 297 295 292 283 280 231 265 270 283 281 268 263 268 261 253 248
185 207 221 229 231 231 251 243 237 237 222 219 199 194 152 198 232 253 242 235 241 208 240 195 249 252 288 264 284 277 276 280 288 299 275 271 279 286 291 283 273 270 268 260 252
201 221 228 230 233 229 237 217 223 200 276 243 242 233 235 259 263 244 228 213 207 237 169 225 256 291 297 238 237 249 276 285 296 169 249 296 293 288 293 292 289 285 278 277 274
215 220 228 232 230 209 206 192 209 298 264 264 237 230 229 235 243 223 196 206 238 241 233 258 311 92 225 240 241 254 257 293 293 314 254 303 277 301 319 309 331 322 302 296 280
219 218 218 224 207 205 202 172 75 10 260 174 173 200 193 202 244 218 207 210 213 263 233 260 100 227 224 257 224 281 333 274 290 316 310 8 295 299 326 338 26 13 9 3 356
223 212 204 199 194 197 203 204 1 72 274 95 141 174 198 212 325 223 212 213 252 232 213 315 217 230 259 278 196 320 317 283 284 282 306 167 251 279 318 352 3 19 35 19 10
229 218 210 206 209 202 188 188 53 213 234 158 152 176 196 199 213 212 193 218 235 254 234 269 279 250 301 77 224 329 271 244 223 241 235 109 306 288 319 345 338 357 5 15 22
224 216 210 204 207 183 170 157 212 235 122 163 182 193 234 210 195 226 224 213 247 270 259 247 188 100 247 253 174 246 283 298 252 237 332 131 262 259 293 318 315 335 345 2 357
213 210 208 206 193 179 163 200 225 88 228 55 67 110 262 26 152 220 249 260 196 238 281 318 192 192 154 277 322 315 313 309 302 301 305 130 238 252 294 298 303 338 351 351 350
207 203 206 202 192 185 193 215 269 187 95 145 169 224 193 168 257 263 229 264 228 200 252 273 245 121 307 309 295 123 233 17 280 238 258 226 248 278 288 302 341 0 355 348 341
195 193 208 198 187 174 202 253 232 198 162 196 235 207 232 180 236 240 243 137 184 221 254 167 286 140 105 188 102 274 121 253 200 279 276 251 268 253 290 319 341 356 343 339 337
185 183 200 184 174 176 218 224 234 225 199 206 230 223 229 232 241 238 263 164 193 147 204 189 248 167 223 209 243 161 215 211 283 248 280 300 248 255 285 312 353 342 342 339 348
192 213 184 170 167 217 203 204 205 208 188 225 242 239 222 197 227 242 245 266 169 166 205 129 275 268 276 84 5 283 271 231 255 254 241 278 284 265 272 304 340 341 346 352 355
204 180 181 178 207 206 196 250 231 195 204 190 217 219 197 210 229 224 221 136 171 186 189 173 208 290 243 144 153 233 199 233 272 273 264 274 269 250 262 298 320 326 328 340 346
192 185 163 197 224 195 178 221 216 219 236 201 176 145 174 221 222 252 233 183 182 232 205 184 249 245 266 287 299 262 239 235 255 275 275 256 279 284 294 313 331 322 332 334 340
200 209 179 187 212 192 197 165 190 215 212 201 203 226 201 226 220 234 258 288 192 202 131 255 265 267 268 274 275 272 272 268 256 258 266 281 281 294 300 322 319 326 324 321 332
197 183 168 139 138 178 187 205 217 202 194 193 224 140 197 226 247 281 221 233 266 151 201 181 276 298 277 276 271 278 276 268 263 266 267 273 285 298 342 355 329 327 329 318 322
204 192 157 161 168 194 201 194 201 187 145 82 170 161 218 262 278 295 267 271 267 263 255 251 276 282 285 299 309 284 259 250 252 261 258 268 287 351 344 340 332 324 326 329 321